Погода в Урале

Россия / Республика Башкортостан     54°23′40″N   56°14′33″E
темп.,
°C
ветер,
м/с
пор.,
м/с
влажн.,
%
обл.,
%
осадки,
мм/ч
давл.,
гПа
погр.,
м
15 мая, сб
сб1523:00+19ю33535 0.0 102434
02:00+17ю335681 0.0 102426
05:00+15ююв3358100 0.0 102434
08:00+19ю34575 0.0 1024154
11:00+25ююз46415 0.0 1024640
14:00+29юз563068 0.0 10231558
17:00+29зюз4533100 0.0 10221387
20:00+25ююз33480 0.0 102224
16 мая, вс
вс1623:00+20ююз33503 0.0 102119
02:00+18ю22595 0.0 102216
05:00+16ююв22635 0.0 102216
08:00+20ююв34590 0.0 1023147
11:00+26ю45425 0.0 1022572
14:00+29ююз45300 0.0 10222177
17:00+29ююз45292 0.0 10212890
20:00+25ю22500 0.0 102015
17 мая, пн
пн1723:00+20ююв35545 0.0 102061
02:00+17ююв33631 0.0 102038
05:00+16ююв34685 0.0 102156
08:00+20ю356454 0.0 1021153
11:00+26ююз454395 0.0 1021594
14:00+29юз45335 0.0 10201706
17:00+30юз3429100 0.0 10193038
20:00+20зюз71161100 0.1 1020147
18 мая, вт
вт1823:00+21з2242100 0.4 101913
02:00+17ю2263100 0.0 102013
05:00+16юз1168100 0.1 102011
08:00+20ююв22590 0.0 1020156
11:00+25ююз11445 0.0 1020600
14:00+29зсз11364 0.0 10191229
17:00+30з12293 0.0 10172950
20:00+26зюз234376 0.0 101743
19 мая, ср
ср1923:00+19ссв5117299 0.1 1019243
02:00+17вюв397029 0.0 1018133
05:00+16ссв22685 0.0 101915
08:00+20всв23635 0.0 1020174
11:00+26в33450 0.0 1020566
14:00+29вюв23330 0.0 10191924
17:00+29зюз12300 0.0 10191660
20:00+26ю114539 0.0 101911